Schneifelwetter: Wetterstation Hallschlag, 537 m . NN
Wetterdaten: Sonntag, 28.03.2010
Datum Zeit Temp. A. Feuchte A. Luftdruck Regen Wind Richtung Richtung Sonnenschein Helligkeit T Regen Taupunkt Windchill
28.03.2010 00:01 3,9 C 95 % 1008 hPa 0,0 l/m 17,0 km/h (3 Bft) SW45 230 0 min 0 lux 0,00 min 3,2 C -3,3 C
28.03.2010 00:16 3,9 C 95 % 1008 hPa 0,0 l/m 17,9 km/h (3 Bft) W-SW22.5 250 0 min 0 lux 0,00 min 3,2 C -3,7 C
28.03.2010 00:31 3,8 C 95 % 1008 hPa 0,0 l/m 20,7 km/h (4 Bft) W-SW22.5 250 0 min 0 lux 0,00 min 3,1 C -5,0 C
28.03.2010 00:46 3,9 C 96 % 1008 hPa 0,0 l/m 15,7 km/h (3 Bft) W-SW45 245 0 min 0 lux 0,00 min 3,3 C -2,6 C
28.03.2010 01:01 4,1 C 96 % 1008 hPa 0,0 l/m 20,3 km/h (4 Bft) W-SW22.5 245 0 min 0 lux 0,00 min 3,5 C -4,5 C
28.03.2010 01:16 4,1 C 96 % 1008 hPa 0,0 l/m 21,0 km/h (4 Bft) SW22.5 230 0 min 0 lux 0,00 min 3,5 C -4,7 C
28.03.2010 01:31 4,2 C 96 % 1008 hPa 0,0 l/m 16,5 km/h (3 Bft) W-SW45 240 0 min 0 lux 0,00 min 3,6 C -2,7 C
28.03.2010 01:46 4,3 C 96 % 1008 hPa 0,0 l/m 22,0 km/h (4 Bft) W-SW22.5 240 0 min 0 lux 0,00 min 3,7 C -4,9 C
28.03.2010 03:01 4,3 C 96 % 1008 hPa 0,0 l/m 21,8 km/h (4 Bft) SW22.5 215 0 min 0 lux 0,00 min 3,7 C -4,8 C
28.03.2010 03:16 4,5 C 96 % 1008 hPa 0,0 l/m 27,0 km/h (4 Bft) SW67.5 225 0 min 0 lux 0,00 min 3,9 C -6,2 C
28.03.2010 03:31 4,5 C 96 % 1008 hPa 0,0 l/m 22,1 km/h (4 Bft) W-SW45 240 0 min 0 lux 0,00 min 3,9 C -4,6 C
28.03.2010 03:46 4,5 C 96 % 1008 hPa 0,3 l/m 27,2 km/h (4 Bft) SW22.5 235 0 min 0 lux 15,00 min 3,9 C -6,3 C
28.03.2010 04:01 4,5 C 96 % 1008 hPa 0,0 l/m 24,6 km/h (4 Bft) W-SW22.5 245 0 min 0 lux 0,00 min 3,9 C -5,5 C
28.03.2010 04:16 4,5 C 97 % 1008 hPa 0,0 l/m 32,1 km/h (5 Bft) W-SW45 245 0 min 0 lux 0,00 min 4,1 C -7,6 C
28.03.2010 04:31 4,5 C 97 % 1008 hPa 0,0 l/m 28,8 km/h (4 Bft) W-SW22.5 250 0 min 0 lux 0,00 min 4,1 C -6,8 C
28.03.2010 04:46 4,5 C 97 % 1008 hPa 0,0 l/m 24,1 km/h (4 Bft) W-SW22.5 250 0 min 0 lux 0,00 min 4,1 C -5,3 C
28.03.2010 05:01 4,6 C 97 % 1008 hPa 0,0 l/m 22,1 km/h (4 Bft) W-SW22.5 250 0 min 0 lux 0,00 min 4,2 C -4,5 C
28.03.2010 05:16 4,6 C 97 % 1008 hPa 0,0 l/m 24,0 km/h (4 Bft) W-SW22.5 255 0 min 0 lux 0,00 min 4,2 C -5,2 C
28.03.2010 05:31 4,7 C 97 % 1008 hPa 0,0 l/m 21,0 km/h (4 Bft) W-SW22.5 250 0 min 0 lux 0,00 min 4,3 C -4,0 C
28.03.2010 05:46 4,7 C 97 % 1008 hPa 0,0 l/m 32,6 km/h (5 Bft) W-SW22.5 250 0 min 0 lux 0,00 min 4,3 C -7,4 C
28.03.2010 06:01 4,7 C 96 % 1008 hPa 0,0 l/m 29,1 km/h (5 Bft) W-SW45 255 0 min 0 lux 0,00 min 4,1 C -6,6 C
28.03.2010 06:16 4,6 C 96 % 1009 hPa 0,0 l/m 30,8 km/h (5 Bft) W-SW22.5 255 0 min 0 lux 0,00 min 4,0 C -7,1 C
28.03.2010 06:31 4,6 C 96 % 1008 hPa 0,0 l/m 25,0 km/h (4 Bft) W-SW22.5 255 0 min 0 lux 0,00 min 4,0 C -5,5 C
28.03.2010 06:46 4,6 C 96 % 1009 hPa 0,0 l/m 31,2 km/h (5 Bft) W-SW22.5 250 0 min 0 lux 0,00 min 4,0 C -7,2 C
28.03.2010 07:01 4,5 C 96 % 1008 hPa 0,0 l/m 33,6 km/h (5 Bft) W-SW22.5 250 0 min 0 lux 0,00 min 3,9 C -8,0 C
28.03.2010 07:16 4,5 C 96 % 1009 hPa 0,0 l/m 27,9 km/h (4 Bft) W-SW22.5 255 0 min 116 lux 0,00 min 3,9 C -6,5 C
28.03.2010 07:31 4,4 C 96 % 1009 hPa 0,0 l/m 26,6 km/h (4 Bft) W-SW22.5 250 0 min 274 lux 0,00 min 3,8 C -6,3 C
28.03.2010 07:46 4,4 C 96 % 1009 hPa 0,0 l/m 23,2 km/h (4 Bft) W-SW22.5 250 0 min 419 lux 0,00 min 3,8 C -5,2 C
28.03.2010 08:01 4,4 C 96 % 1009 hPa 0,0 l/m 25,6 km/h (4 Bft) W-SW22.5 250 0 min 1,57 klux 0,00 min 3,8 C -5,9 C
28.03.2010 08:16 4,5 C 96 % 1009 hPa 0,0 l/m 33,9 km/h (5 Bft) W-SW22.5 250 0 min 2,23 klux 0,00 min 3,9 C -8,0 C
28.03.2010 08:31 4,6 C 96 % 1009 hPa 0,0 l/m 26,4 km/h (4 Bft) W-SW22.5 250 0 min 2,64 klux 0,00 min 4,0 C -5,9 C
28.03.2010 08:46 4,6 C 96 % 1009 hPa 0,0 l/m 25,5 km/h (4 Bft) W-SW22.5 245 0 min 2,64 klux 0,00 min 4,0 C -5,6 C
28.03.2010 09:01 4,6 C 96 % 1009 hPa 0,0 l/m 25,8 km/h (4 Bft) W-SW45 255 0 min 4,77 klux 0,00 min 4,0 C -5,7 C
28.03.2010 09:16 4,8 C 95 % 1010 hPa 0,0 l/m 32,9 km/h (5 Bft) W-SW22.5 250 0 min 5,76 klux 0,00 min 4,1 C -7,4 C
28.03.2010 09:31 4,9 C 95 % 1009 hPa 0,0 l/m 34,6 km/h (5 Bft) W-SW22.5 250 0 min 11,8 klux 0,00 min 4,2 C -7,6 C
28.03.2010 09:46 5,5 C 94 % 1010 hPa 0,0 l/m 26,8 km/h (4 Bft) W-SW45 250 0 min 18,3 klux 0,00 min 4,6 C -4,8 C
28.03.2010 10:01 5,8 C 93 % 1010 hPa 0,0 l/m 33,4 km/h (5 Bft) W-SW22.5 245 0 min 17,3 klux 0,00 min 4,8 C -6,0 C
28.03.2010 10:16 6,0 C 92 % 1010 hPa 0,0 l/m 31,9 km/h (5 Bft) W-SW45 255 0 min 16,4 klux 0,00 min 4,8 C -5,4 C
28.03.2010 10:31 6,4 C 91 % 1010 hPa 0,0 l/m 31,2 km/h (5 Bft) W-SW45 250 0 min 31,5 klux 0,00 min 5,0 C -4,7 C
28.03.2010 10:46 6,7 C 90 % 1010 hPa 0,0 l/m 36,2 km/h (5 Bft) W-SW22.5 250 0 min 25,8 klux 0,00 min 5,2 C -5,3 C
28.03.2010 11:01 6,7 C 89 % 1010 hPa 0,0 l/m 35,3 km/h (5 Bft) W-SW45 255 0 min 26,6 klux 0,00 min 5,0 C -5,1 C
28.03.2010 11:16 7,0 C 89 % 1010 hPa 0,0 l/m 35,3 km/h (5 Bft) W-SW22.5 250 0 min 23,3 klux 0,00 min 5,3 C -4,7 C
28.03.2010 11:31 7,2 C 87 % 1010 hPa 0,0 l/m 29,3 km/h (5 Bft) W-SW22.5 255 0 min 23,0 klux 0,00 min 5,2 C -3,1 C
28.03.2010 11:46 7,4 C 87 % 1010 hPa 0,0 l/m 24,6 km/h (4 Bft) SW45 230 0 min 28,7 klux 0,00 min 5,4 C -1,6 C
28.03.2010 12:01 7,7 C 86 % 1009 hPa 0,0 l/m 30,3 km/h (5 Bft) W-SW45 245 0 min 28,1 klux 0,00 min 5,5 C -2,6 C
28.03.2010 12:16 7,1 C 86 % 1009 hPa 0,0 l/m 32,8 km/h (5 Bft) W-SW22.5 250 0 min 18,0 klux 0,00 min 4,9 C -4,1 C
28.03.2010 12:31 6,4 C 88 % 1009 hPa 0,9 l/m 24,8 km/h (4 Bft) W-SW22.5 250 0 min 9,4 klux 15,00 min 4,6 C -3,0 C
28.03.2010 12:46 5,9 C 89 % 1010 hPa 0,3 l/m 34,6 km/h (5 Bft) W-SW22.5 250 0 min 13,9 klux 15,00 min 4,2 C -6,2 C
28.03.2010 13:01 5,6 C 90 % 1009 hPa 0,3 l/m 27,0 km/h (4 Bft) W-SW22.5 255 15 min 66,1 klux 15,00 min 4,1 C -4,7 C
28.03.2010 13:16 7,3 C 91 % 1009 hPa 0,0 l/m 31,6 km/h (5 Bft) W-SW22.5 255 15 min 67,3 klux 0,00 min 5,9 C -3,5 C
28.03.2010 13:31 8,3 C 89 % 1009 hPa 0,0 l/m 37,8 km/h (5 Bft) W-SW22.5 255 15 min 75,4 klux 0,00 min 6,6 C -3,3 C
28.03.2010 13:46 8,4 C 88 % 1009 hPa 0,0 l/m 34,6 km/h (5 Bft) W-SW22.5 255 15 min 66,0 klux 0,00 min 6,5 C -2,6 C
28.03.2010 14:01 8,9 C 84 % 1009 hPa 0,0 l/m 34,4 km/h (5 Bft) W-SW45 250 15 min 87,3 klux 0,00 min 6,3 C -1,8 C
28.03.2010 14:16 8,9 C 81 % 1009 hPa 0,0 l/m 33,3 km/h (5 Bft) W-SW22.5 245 15 min 84,8 klux 0,00 min 5,8 C -1,6 C
28.03.2010 14:31 9,2 C 81 % 1009 hPa 0,0 l/m 30,4 km/h (5 Bft) W-SW22.5 255 15 min 49,0 klux 0,00 min 6,1 C -0,6 C
28.03.2010 14:46 8,9 C 80 % 1009 hPa 0,0 l/m 31,0 km/h (5 Bft) W-SW45 245 0 min 31,1 klux 0,00 min 5,6 C -1,1 C
28.03.2010 15:01 9,0 C 80 % 1008 hPa 0,0 l/m 34,1 km/h (5 Bft) W-SW45 240 0 min 34,3 klux 0,00 min 5,7 C -1,6 C
28.03.2010 15:16 8,5 C 79 % 1008 hPa 0,0 l/m 29,4 km/h (5 Bft) W-SW45 245 0 min 22,7 klux 0,00 min 5,1 C -1,3 C
28.03.2010 15:31 8,0 C 81 % 1008 hPa 0,0 l/m 42,0 km/h (6 Bft) W-SW22.5 250 0 min 24,2 klux 0,00 min 4,9 C -4,4 C
28.03.2010 15:46 8,3 C 86 % 1008 hPa 0,0 l/m 36,7 km/h (5 Bft) W-SW45 250 15 min 76,1 klux 0,00 min 6,1 C -3,1 C
28.03.2010 16:01 8,4 C 84 % 1008 hPa 0,0 l/m 35,3 km/h (5 Bft) W-SW22.5 250 15 min 51,6 klux 0,00 min 5,9 C -2,7 C
28.03.2010 16:16 8,4 C 82 % 1008 hPa 0,0 l/m 39,6 km/h (6 Bft) W-SW45 240 15 min 45,9 klux 0,00 min 5,5 C -3,4 C
28.03.2010 16:31 8,4 C 83 % 1008 hPa 0,0 l/m 27,8 km/h (4 Bft) W-SW22.5 250 0 min 29,5 klux 0,00 min 5,7 C -1,1 C
28.03.2010 16:46 8,0 C 86 % 1008 hPa 0,0 l/m 34,8 km/h (5 Bft) W-SW22.5 255 0 min 36,8 klux 0,00 min 5,8 C -3,2 C
28.03.2010 17:01 8,3 C 86 % 1008 hPa 0,0 l/m 30,5 km/h (5 Bft) W-SW45 250 0 min 36,2 klux 0,00 min 6,1 C -1,8 C
28.03.2010 17:16 8,3 C 85 % 1007 hPa 0,0 l/m 33,1 km/h (5 Bft) W-SW22.5 245 0 min 34,7 klux 0,00 min 5,9 C -2,4 C
28.03.2010 17:31 8,1 C 83 % 1007 hPa 0,0 l/m 36,3 km/h (5 Bft) W-SW22.5 250 0 min 19,2 klux 0,00 min 5,4 C -3,3 C
28.03.2010 17:46 7,8 C 83 % 1007 hPa 0,9 l/m 37,9 km/h (5 Bft) W-SW45 250 0 min 16,9 klux 15,00 min 5,1 C -4,0 C
28.03.2010 18:01 7,5 C 85 % 1007 hPa 0,0 l/m 29,1 km/h (5 Bft) SW45 230 0 min 7,59 klux 0,00 min 5,1 C -2,6 C
28.03.2010 18:16 7,1 C 87 % 1007 hPa 0,3 l/m 24,6 km/h (4 Bft) W-SW22.5 250 0 min 4,58 klux 15,00 min 5,1 C -2,0 C
28.03.2010 18:31 6,7 C 88 % 1007 hPa 0,6 l/m 18,2 km/h (3 Bft) W-SW 255 0 min 3,56 klux 15,00 min 4,9 C -0,3 C
28.03.2010 18:45 6,6 C 90 % 1008 hPa 0,0 l/m 23,6 km/h (4 Bft) W-SW45 245 0 min 5,43 klux 0,00 min 5,1 C -2,3 C
28.03.2010 19:01 6,4 C 91 % 1007 hPa 0,0 l/m 27,0 km/h (4 Bft) W-SW45 250 0 min 3,61 klux 0,00 min 5,0 C -3,6 C
28.03.2010 19:16 6,4 C 92 % 1007 hPa 0,0 l/m 18,5 km/h (3 Bft) SW22.5 230 0 min 3,04 klux 0,00 min 5,2 C -0,8 C
28.03.2010 19:31 6,3 C 92 % 1007 hPa 0,0 l/m 17,7 km/h (3 Bft) SW45 230 0 min 1,08 klux 0,00 min 5,1 C -0,6 C
28.03.2010 19:46 6,2 C 93 % 1007 hPa 0,0 l/m 19,1 km/h (3 Bft) W-SW22.5 250 0 min 911 lux 0,00 min 5,2 C -1,3 C
28.03.2010 20:01 6,1 C 94 % 1007 hPa 0,0 l/m 15,9 km/h (3 Bft) W-SW22.5 245 0 min 202 lux 0,00 min 5,2 C -0,0 C
28.03.2010 20:16 6,1 C 94 % 1007 hPa 0,0 l/m 16,0 km/h (3 Bft) W22.5 260 0 min 47 lux 0,00 min 5,2 C -0,1 C
28.03.2010 20:31 6,0 C 95 % 1007 hPa 0,0 l/m 18,6 km/h (3 Bft) W-SW22.5 250 0 min 7 lux 0,00 min 5,3 C -1,3 C
28.03.2010 20:46 6,0 C 95 % 1007 hPa 0,0 l/m 25,7 km/h (4 Bft) W-SW45 250 0 min 0 lux 0,00 min 5,3 C -3,8 C
28.03.2010 21:01 6,0 C 95 % 1007 hPa 0,0 l/m 18,8 km/h (3 Bft) W-SW22.5 250 0 min 0 lux 0,00 min 5,3 C -1,4 C
28.03.2010 21:16 6,0 C 95 % 1007 hPa 0,0 l/m 22,6 km/h (4 Bft) W-SW22.5 240 0 min 0 lux 0,00 min 5,3 C -2,8 C
28.03.2010 21:31 6,0 C 96 % 1007 hPa 0,0 l/m 22,9 km/h (4 Bft) W-SW45 240 0 min 0 lux 0,00 min 5,4 C -2,9 C
28.03.2010 21:46 6,0 C 96 % 1007 hPa 0,0 l/m 27,3 km/h (4 Bft) SW45 225 0 min 0 lux 0,00 min 5,4 C -4,3 C
28.03.2010 22:01 6,0 C 96 % 1007 hPa 0,0 l/m 25,7 km/h (4 Bft) W-SW45 240 0 min 0 lux 0,00 min 5,4 C -3,8 C
28.03.2010 22:15 6,0 C 96 % 1007 hPa 0,0 l/m 18,7 km/h (3 Bft) W-SW45 240 0 min 0 lux 0,00 min 5,4 C -1,4 C
28.03.2010 22:31 6,1 C 97 % 1007 hPa 0,0 l/m 23,1 km/h (4 Bft) W-SW45 240 0 min 0 lux 0,00 min 5,7 C -2,9 C
28.03.2010 22:46 6,0 C 97 % 1007 hPa 0,0 l/m 25,0 km/h (4 Bft) SW45 230 0 min 0 lux 0,00 min 5,6 C -3,6 C
28.03.2010 23:01 6,1 C 97 % 1007 hPa 2,4 l/m 20,8 km/h (4 Bft) W-SW45 245 0 min 0 lux 15,00 min 5,7 C -2,0 C
28.03.2010 23:16 6,1 C 97 % 1007 hPa 0,0 l/m 22,4 km/h (4 Bft) SW45 225 0 min 0 lux 0,00 min 5,7 C -2,6 C
28.03.2010 23:31 6,2 C 97 % 1007 hPa 0,0 l/m 24,1 km/h (4 Bft) SW45 230 0 min 0 lux 0,00 min 5,8 C -3,0 C
28.03.2010 23:46 6,2 C 97 % 1007 hPa 0,0 l/m 16,3 km/h (3 Bft) SW22.5 225 0 min 0 lux 0,00 min 5,8 C -0,1 C
_ Min-Zeit 00:31 15:16 17:16 - 00:46 - - - - - 00:31 08:16
Minimum _ 3,8 C 79 % 1007 hPa - 15,7 km/h (3 Bft) - - - - - 3,1 C -8,0 C
_ Max-Zeit 14:31 04:16 09:16 23:01 15:31 - - 13:01 14:01 03:46 13:31 20:01
Maximum _ 9,2 C 97 % 1010 hPa 2,4 l/m 42,0 km/h
W-SW (6 Bft)
- - 15 min 87,3 klux 15,00 min 6,6 C -0,0 C
Durchschnitt _ 6,0 C 92 % 1008 hPa #6,0 l/m 27,1 km/h (4 Bft) W-SW - #2:30 h 14,1 klux #2:00 h 4,8 C -3,9 C